FW5426 Weather Reports


Display with metric or nautical units.
time (UTC)temp
F
wind
direction
speed
MPH
gust
MPH
rain 1hr
in
rain 24hr
in
rain mn
in
humidity
%
barometer
mb
20260831072430 87 163 3.0 9.0 0.00 0.00 0.00 26 1016.5
20260831071929 88 161 4.0 9.0 0.00 0.00 0.00 26 1016.8
20260831071430 88 192 4.0 8.0 0.00 0.00 0.00 26 1016.9
20260831070930 88 218 4.0 8.0 0.00 0.00 0.00 26 1016.9
20260831070430 88 214 4.0 7.0 0.00 0.00 0.00 26 1016.8
20260831065930 88 221 3.0 7.0 0.00 0.00 0.00 26 1016.9
20260831065429 87 213 4.0 9.0 0.00 0.00 0.00 26 1016.9
20260831064930 87 124 5.0 13.0 0.00 0.00 0.00 26 1016.8
20260831064908 87 193 4.0 13.0 0.00 0.00 0.00 26 1016.7
20260831063925 86 254 2.0 9.0 0.00 0.00 0.00 27 1016.8
20260831063426 85 236 3.0 6.0 0.00 0.00 0.00 26 1016.5
20260831062925 85 270 2.0 6.0 0.00 0.00 0.00 26 1016.8
20260831062425 86 272 1.0 4.0 0.00 0.00 0.00 26 1016.7
20260831061925 86 144 2.0 4.0 0.00 0.00 0.00 26 1016.5
20260831061424 85 113 3.0 6.0 0.00 0.00 0.00 26 1016.5
20260831060922 85 117 3.0 6.0 0.00 0.00 0.00 26 1016.5
20260831060649 85 105 3.0 6.0 0.00 0.00 0.00 26 1016.7
20260831055921 85 93 3.0 6.0 0.00 0.00 0.00 26 1016.5
20260831055421 84 108 4.0 7.0 0.00 0.00 0.00 26 1016.5
20260831055144 84 87 4.0 9.0 0.00 0.00 0.00 26 1016.5
20260831054420 84 77 3.0 9.0 0.00 0.00 0.00 26 1016.5
20260831053917 85 68 1.0 7.0 0.00 0.00 0.00 26 1016.5
20260831053416 85 65 1.0 2.0 0.00 0.00 0.00 26 1016.4
20260831052914 86 65 1.0 2.0 0.00 0.00 0.00 26 1016.4
20260831052411 86 65 0.0 1.0 0.00 0.00 0.00 26 1016.4
20260831051910 86 65 0.0 2.0 0.00 0.00 0.00 25 1016.3
20260831051407 87 66 0.0 2.0 0.00 0.00 0.00 26 1016.4
20260831050905 87 66 0.0 2.0 0.00 0.00 0.00 26 1016.4
20260831050405 87 66 0.0 1.0 0.00 0.00 0.00 26 1016.3
20260831045906 87 72 0.0 1.0 0.00 0.00 0.00 27 1016.4
20260831045405 87 84 0.0 1.0 0.00 0.00 0.00 26 1016.4
20260831044905 87 84 0.0 2.0 0.00 0.00 0.00 26 1016.4
20260831044401 88 88 0.0 2.0 0.00 0.00 0.00 25 1016.4
20260831043902 88 212 0.0 0.0 0.00 0.00 0.00 25 1016.3
20260831043402 89 226 0.0 0.0 0.00 0.00 0.00 24 1016.4
20260831042901 89 226 0.0 0.0 0.00 0.00 0.00 24 1016.3
20260831042542 90 244 0.0 0.0 0.00 0.00 0.00 23 1016.2
20260831042534 89 245 0.0 0.0 0.00 0.00 0.00 23 1016.2
20260831042312 90 244 0.0 1.0 0.00 0.00 0.00 23 1016.1
20260831040901 90 229 0.0 1.0 0.00 0.00 0.00 23 1016.1
20260831040402 90 222 0.0 2.0 0.00 0.00 0.00 22 1016.1
20260831035902 91 227 1.0 2.0 0.00 0.00 0.00 22 1016.1
20260831035624 91 227 0.0 2.0 0.00 0.00 0.00 22 1016.1
20260831034901 91 236 0.0 2.0 0.00 0.00 0.00 21 1016.0
20260831034632 91 225 0.0 2.0 0.00 0.00 0.00 21 1016.1
20260831033901 91 205 1.0 3.0 0.00 0.00 0.00 21 1015.9
20260831033402 91 225 1.0 3.0 0.00 0.00 0.00 21 1015.9
20260831032902 92 219 2.0 3.0 0.00 0.00 0.00 21 1015.9
20260831032401 92 194 2.0 4.0 0.00 0.00 0.00 21 1015.6
20260831031901 92 177 1.0 4.0 0.00 0.00 0.00 21 1015.6
20260831031401 92 203 1.0 2.0 0.00 0.00 0.00 21 1015.6
20260831030902 92 217 1.0 3.0 0.00 0.00 0.00 20 1015.6
20260831030401 92 227 1.0 3.0 0.00 0.00 0.00 20 1015.8
20260831025902 92 238 1.0 4.0 0.00 0.00 0.00 20 1015.5
20260831025401 92 233 2.0 4.0 0.00 0.00 0.00 20 1015.5
20260831024901 93 240 2.0 4.0 0.00 0.00 0.00 20 1015.4
20260831024401 93 239 2.0 4.0 0.00 0.00 0.00 20 1015.3
20260831023901 93 222 2.0 4.0 0.00 0.00 0.00 20 1015.2
20260831023401 93 242 2.0 4.0 0.00 0.00 0.00 19 1015.3
20260831022900 93 233 2.0 4.0 0.00 0.00 0.00 19 1015.3
20260831022401 94 234 2.0 4.0 0.00 0.00 0.00 19 1015.2
20260831021900 94 252 3.0 4.0 0.00 0.00 0.00 19 1015.1
20260831021401 94 254 3.0 4.0 0.00 0.00 0.00 19 1015.2
20260831021131 94 211 2.0 4.0 0.00 0.00 0.00 19 1015.2
20260831020620 94 234 2.0 5.0 0.00 0.00 0.00 19 1015.1
20260831015902 94 227 2.0 5.0 0.00 0.00 0.00 19 1015.1
20260831015401 94 200 2.0 5.0 0.00 0.00 0.00 20 1015.1
20260831014901 95 138 1.0 5.0 0.00 0.00 0.00 19 1015.1
20260831014401 95 186 1.0 5.0 0.00 0.00 0.00 19 1015.1
20260831013900 95 186 1.0 5.0 0.00 0.00 0.00 19 1015.1
20260831013402 95 159 2.0 5.0 0.00 0.00 0.00 19 1015.0
20260831012901 95 148 2.0 5.0 0.00 0.00 0.00 19 1015.0
20260831012402 95 145 1.0 5.0 0.00 0.00 0.00 19 1015.0
20260831012335 96 169 1.0 4.0 0.00 0.00 0.00 18 1015.1
20260831011351 96 162 1.0 3.0 0.00 0.00 0.00 18 1014.9
20260831010851 96 123 2.0 4.0 0.00 0.00 0.00 18 1014.9
20260831010349 97 104 2.0 4.0 0.00 0.00 0.00 18 1015.0
20260831005847 97 219 1.0 4.0 0.00 0.00 0.00 18 1015.0
20260831005347 97 174 2.0 5.0 0.00 0.00 0.00 18 1015.0
20260831004847 97 165 3.0 6.0 0.00 0.00 0.00 18 1014.9
20260831004608 97 190 4.0 9.0 0.00 0.00 0.00 18 1015.0
20260831003843 97 169 4.0 9.0 0.00 0.00 0.00 18 1015.0
20260831003607 97 95 3.0 8.0 0.00 0.00 0.00 18 1014.9
20260831002843 97 107 4.0 8.0 0.00 0.00 0.00 18 1014.9
20260831002607 97 93 4.0 7.0 0.00 0.00 0.00 18 1014.9
20260831002104 97 123 4.0 8.0 0.00 0.00 0.00 18 1014.9
20260831001341 98 96 4.0 8.0 0.00 0.00 0.00 18 1015.0
20260831000840 98 165 2.0 6.0 0.00 0.00 0.00 18 1014.9
20260831000340 98 118 2.0 7.0 0.00 0.00 0.00 18 1015.0
20260830235839 98 138 4.0 14.0 0.00 0.00 0.00 17 1015.0
20260830235339 99 119 3.0 14.0 0.00 0.00 0.00 17 1015.0
20260830235032 99 157 3.0 6.0 0.00 0.00 0.00 17 1015.0
20260830235026 99 236 2.0 6.0 0.00 0.00 0.00 17 1015.0
20260830234052 98 172 2.0 7.0 0.00 0.00 0.00 17 1015.1
20260830233328 98 304 3.0 7.0 0.00 0.00 0.00 17 1015.1
20260830232829 98 323 3.0 8.0 0.00 0.00 0.00 17 1015.2
20260830232553 98 110 2.0 8.0 0.00 0.00 0.00 17 1015.3
20260830232052 98 161 2.0 8.0 0.00 0.00 0.00 17 1015.3
20260830231329 98 173 5.0 9.0 0.00 0.00 0.00 18 1015.4
20260830230829 98 144 5.0 9.0 0.00 0.00 0.00 18 1015.4
20260830230329 98 19 6.0 11.0 0.00 0.00 0.00 18 1015.4
20260830225828 98 83 5.0 11.0 0.00 0.00 0.00 18 1015.5
20260830225330 98 98 3.0 8.0 0.00 0.00 0.00 18 1015.5
20260830224829 98 44 4.0 9.0 0.00 0.00 0.00 18 1015.6
20260830224329 98 150 6.0 11.0 0.00 0.00 0.00 17 1015.8
20260830223828 99 98 6.0 11.0 0.00 0.00 0.00 17 1015.6
20260830223328 99 113 7.0 11.0 0.00 0.00 0.00 17 1015.8
20260830222828 100 100 6.0 12.0 0.00 0.00 0.00 17 1015.8
20260830222328 100 181 4.0 12.0 0.00 0.00 0.00 17 1015.9
20260830221829 100 192 2.0 8.0 0.00 0.00 0.00 18 1015.9
20260830221329 99 262 2.0 6.0 0.00 0.00 0.00 18 1016.0
20260830220828 98 336 4.0 9.0 0.00 0.00 0.00 18 1016.0
20260830220328 98 34 4.0 9.0 0.00 0.00 0.00 17 1016.1
20260830220051 98 320 5.0 11.0 0.00 0.00 0.00 18 1016.1
20260830215329 98 34 4.0 11.0 0.00 0.00 0.00 19 1016.7
20260830214828 98 53 3.0 10.0 0.00 0.00 0.00 19 1016.5
20260830214329 97 340 4.0 9.0 0.00 0.00 0.00 19 1016.7
20260830213826 97 355 4.0 9.0 0.00 0.00 0.00 19 1016.8
20260830213326 98 350 4.0 9.0 0.00 0.00 0.00 19 1016.5
20260830212826 98 55 4.0 9.0 0.00 0.00 0.00 19 1016.8
20260830212553 98 123 3.0 9.0 0.00 0.00 0.00 19 1016.9
20260830212052 99 48 2.0 6.0 0.00 0.00 0.00 19 1016.9
20260830211323 98 177 2.0 5.0 0.00 0.00 0.00 20 1016.9
20260830210823 97 259 2.0 5.0 0.00 0.00 0.00 20 1017.0
20260830210322 97 289 4.0 8.0 0.00 0.00 0.00 21 1017.1
20260830210045 97 53 4.0 9.0 0.00 0.00 0.00 21 1017.1
20260830205323 97 15 4.0 9.0 0.00 0.00 0.00 21 1017.2
20260830205045 96 138 3.0 8.0 0.00 0.00 0.00 21 1017.3
20260830204320 97 92 3.0 8.0 0.00 0.00 0.00 21 1017.4
20260830204306 97 26 2.0 5.0 0.00 0.00 0.00 21 1017.6
20260830203320 96 215 2.0 4.0 0.00 0.00 0.00 22 1017.6
20260830202820 96 28 2.0 4.0 0.00 0.00 0.00 22 1017.7
20260830202318 95 303 3.0 7.0 0.00 0.00 0.00 22 1017.8
20260830201816 95 59 3.0 8.0 0.00 0.00 0.00 22 1018.0
20260830201549 95 57 3.0 8.0 0.00 0.00 0.00 22 1018.1
20260830200816 96 69 4.0 8.0 0.00 0.00 0.00 22 1018.1
20260830200317 96 135 5.0 10.0 0.00 0.00 0.00 22 1018.1
20260830195816 96 169 3.0 10.0 0.00 0.00 0.00 22 1018.2
20260830195316 97 106 2.0 9.0 0.00 0.00 0.00 22 1018.3
20260830194809 96 30 2.0 5.0 0.00 0.00 0.00 22 1018.3
20260830194308 95 240 4.0 11.0 0.00 0.00 0.00 22 1018.4
20260830194032 95 129 5.0 11.0 0.00 0.00 0.00 22 1018.4
20260830193309 95 106 3.0 11.0 0.00 0.00 0.00 22 1018.6
20260830192808 95 251 3.0 7.0 0.00 0.00 0.00 23 1018.6
20260830192534 95 272 4.0 11.0 0.00 0.00 0.00 23 1018.7
20260830192033 94 168 6.0 11.0 0.00 0.00 0.00 23 1018.7
20260830191529 94 205 4.0 10.0 0.00 0.00 0.00 23 1018.8
20260830190805 94 121 3.0 9.0 0.00 0.00 0.00 23 1018.8
20260830190304 94 128 4.0 10.0 0.00 0.00 0.00 23 1018.9
20260830185805 94 99 3.0 10.0 0.00 0.00 0.00 23 1018.9
20260830185524 94 103 1.0 5.0 0.00 0.00 0.00 23 1018.9
20260830184804 93 210 4.0 10.0 0.00 0.00 0.00 24 1019.0
20260830184302 93 107 5.0 11.0 0.00 0.00 0.00 24 1019.0
20260830184027 93 163 5.0 11.0 0.00 0.00 0.00 24 1019.1
20260830183303 92 165 4.0 11.0 0.00 0.00 0.00 24 1019.2
20260830182804 92 136 4.0 9.0 0.00 0.00 0.00 25 1019.3
20260830182522 92 199 3.0 9.0 0.00 0.00 0.00 25 1019.5
20260830181757 92 220 3.0 7.0 0.00 0.00 0.00 25 1019.3
20260830181251 92 303 4.0 8.0 0.00 0.00 0.00 25 1019.3
20260830181004 92 187 5.0 9.0 0.00 0.00 0.00 25 1019.6
20260830180501 92 178 4.0 9.0 0.00 0.00 0.00 26 1019.6
20260830175733 91 117 4.0 9.0 0.00 0.00 0.00 26 1019.7
20260830175232 91 90 5.0 10.0 0.00 0.00 0.00 26 1019.8
20260830174731 90 123 5.0 10.0 0.00 0.00 0.00 26 1019.9
20260830174232 90 304 5.0 10.0 0.00 0.00 0.00 26 1019.9
20260830173732 91 161 4.0 10.0 0.00 0.00 0.00 26 1020.0
20260830173232 90 108 4.0 12.0 0.00 0.00 0.00 26 1020.0
20260830172732 90 130 6.0 12.0 0.00 0.00 0.00 27 1020.1
20260830172231 89 166 6.0 11.0 0.00 0.00 0.00 27 1020.1
20260830171732 90 171 5.0 10.0 0.00 0.00 0.00 27 1020.1
20260830171448 89 103 5.0 10.0 0.00 0.00 0.00 27 1020.1
20260830170732 89 196 5.0 11.0 0.00 0.00 0.00 27 1020.4
20260830170231 89 154 5.0 11.0 0.00 0.00 0.00 27 1020.4
20260830165732 89 136 5.0 10.0 0.00 0.00 0.00 28 1020.4
20260830165458 88 170 6.0 11.0 0.00 0.00 0.00 28 1020.4
20260830164953 88 189 7.0 12.0 0.00 0.00 0.00 29 1020.4
20260830164231 88 167 6.0 12.0 0.00 0.00 0.00 28 1020.4
20260830163730 88 190 6.0 11.0 0.00 0.00 0.00 28 1020.2
20260830163231 87 198 6.0 11.0 0.00 0.00 0.00 28 1020.4
20260830162727 87 207 6.0 12.0 0.00 0.00 0.00 29 1020.2
20260830162228 87 206 6.0 12.0 0.00 0.00 0.00 29 1020.4
20260830161725 86 202 6.0 11.0 0.00 0.00 0.00 29 1020.1
20260830161226 87 225 6.0 12.0 0.00 0.00 0.00 28 1020.2
20260830160943 87 188 4.0 12.0 0.00 0.00 0.00 29 1020.1
20260830160223 86 160 3.0 10.0 0.00 0.00 0.00 30 1020.0
20260830155722 85 179 4.0 10.0 0.00 0.00 0.00 32 1020.0
20260830155444 85 219 4.0 10.0 0.00 0.00 0.00 31 1020.2
20260830154945 85 253 4.0 10.0 0.00 0.00 0.00 31 1020.2
20260830154444 85 211 5.0 10.0 0.00 0.00 0.00 32 1020.1
20260830153721 85 182 6.0 11.0 0.00 0.00 0.00 32 1020.1
20260830153221 85 163 5.0 11.0 0.00 0.00 0.00 32 1020.0
20260830152723 85 167 5.0 9.0 0.00 0.00 0.00 33 1020.1
20260830152222 84 137 4.0 9.0 0.00 0.00 0.00 34 1020.1
20260830151722 84 155 4.0 7.0 0.00 0.00 0.00 34 1020.0
20260830151221 84 171 3.0 7.0 0.00 0.00 0.00 34 1020.0
20260830150722 84 121 3.0 7.0 0.00 0.00 0.00 34 1020.0
20260830150221 83 133 2.0 7.0 0.00 0.00 0.00 35 1020.1
20260830145715 83 120 2.0 4.0 0.00 0.00 0.00 35 1020.1
20260830145213 83 126 3.0 6.0 0.00 0.00 0.00 35 1020.1
20260830144713 83 121 3.0 7.0 0.00 0.00 0.00 35 1020.2
20260830144214 82 166 4.0 8.0 0.00 0.00 0.00 36 1020.2
20260830143713 82 121 4.0 8.0 0.00 0.00 0.00 36 1020.4
20260830143214 82 173 3.0 8.0 0.00 0.00 0.00 36 1020.2
20260830142713 82 148 3.0 6.0 0.00 0.00 0.00 36 1020.2
20260830142213 82 141 4.0 6.0 0.00 0.00 0.00 37 1020.2
20260830141713 82 207 4.0 7.0 0.00 0.00 0.00 37 1020.2
20260830141213 81 140 4.0 7.0 0.00 0.00 0.00 36 1020.2
20260830140713 81 157 4.0 7.0 0.00 0.00 0.00 36 1020.1
20260830140214 81 138 3.0 6.0 0.00 0.00 0.00 36 1020.1
20260830135715 81 177 3.0 6.0 0.00 0.00 0.00 36 1020.1
20260830135214 81 143 2.0 6.0 0.00 0.00 0.00 36 1020.1
20260830134713 80 152 0.0 2.0 0.00 0.00 0.00 36 1020.0
20260830134213 80 151 0.0 0.0 0.00 0.00 0.00 36 1019.9
20260830133713 80 150 0.0 2.0 0.00 0.00 0.00 36 1019.9
20260830133432 80 142 1.0 2.0 0.00 0.00 0.00 36 1019.9
20260830132714 79 141 0.0 2.0 0.00 0.00 0.00 37 1019.9
20260830132209 78 156 0.0 2.0 0.00 0.00 0.00 37 1019.8
20260830131710 78 156 0.0 0.0 0.00 0.00 0.00 38 1019.8
20260830131209 77 156 0.0 1.0 0.00 0.00 0.00 38 1019.8
20260830130710 77 156 1.0 2.0 0.00 0.00 0.00 38 1019.8
20260830130210 77 156 0.0 2.0 0.00 0.00 0.00 38 1019.7
20260830125710 77 188 0.0 0.0 0.00 0.00 0.00 38 1019.6
20260830125210 77 238 0.0 0.0 0.00 0.00 0.00 38 1019.6
20260830124925 77 238 0.0 0.0 0.00 0.00 0.00 38 1019.5
20260830124209 77 238 0.0 0.0 0.00 0.00 0.00 38 1019.5
20260830123703 77 190 0.0 0.0 0.00 0.00 0.00 38 1019.5
20260830123203 77 132 0.0 0.0 0.00 0.00 0.00 37 1019.6
20260830122703 77 132 0.0 0.0 0.00 0.00 0.00 37 1019.5
20260830122420 77 132 0.0 0.0 0.00 0.00 0.00 36 1019.5
20260830121703 77 132 0.0 0.0 0.00 0.00 0.00 36 1019.3
20260830121425 77 132 0.0 0.0 0.00 0.00 0.00 36 1019.3
20260830120924 78 73 0.0 0.0 0.00 0.00 0.00 36 1019.3
20260830120202 78 73 0.0 0.0 0.00 0.00 0.00 35 1019.3
20260830115926 78 73 1.0 3.0 0.00 0.00 0.00 35 1019.3
20260830115203 79 75 1.0 4.0 0.00 0.00 0.00 34 1019.3
20260830114704 80 80 1.0 4.0 0.00 0.00 0.00 34 1019.2
20260830114203 80 192 1.0 3.0 0.00 0.00 0.00 34 1019.2
20260830113703 80 232 1.0 4.0 0.00 0.00 0.00 34 1019.1
20260830113203 80 235 1.0 4.0 0.00 0.00 0.00 33 1019.2
20260830112703 80 194 1.0 3.0 0.00 0.00 0.00 33 1019.1
20260830112203 80 295 2.0 5.0 0.00 0.00 0.00 33 1019.1
20260830111703 81 225 3.0 7.0 0.00 0.00 0.00 33 1019.0
20260830111203 81 180 3.0 7.0 0.00 0.00 0.00 33 1018.9
20260830110928 81 217 3.0 6.0 0.00 0.00 0.00 33 1019.0
20260830110203 80 207 4.0 9.0 0.00 0.00 0.00 32 1019.0
20260830105702 80 155 4.0 9.0 0.00 0.00 0.00 32 1018.9
20260830105203 80 216 4.0 8.0 0.00 0.00 0.00 33 1018.9
20260830104702 80 219 4.0 8.0 0.00 0.00 0.00 33 1018.9
20260830104203 80 203 4.0 8.0 0.00 0.00 0.00 32 1018.7
20260830103703 80 222 4.0 7.0 0.00 0.00 0.00 32 1018.7
20260830103204 80 213 4.0 7.0 0.00 0.00 0.00 32 1018.6
20260830102704 80 207 4.0 7.0 0.00 0.00 0.00 32 1018.7
20260830102202 81 192 4.0 7.0 0.00 0.00 0.00 32 1018.7
20260830101703 81 200 4.0 8.0 0.00 0.00 0.00 31 1018.6
20260830101203 81 182 5.0 8.0 0.00 0.00 0.00 31 1018.6
20260830100703 81 198 5.0 7.0 0.00 0.00 0.00 31 1018.4
20260830100203 82 196 5.0 9.0 0.00 0.00 0.00 31 1018.4
20260830095657 82 222 6.0 9.0 0.00 0.00 0.00 30 1018.3
20260830095152 82 179 6.0 10.0 0.00 0.00 0.00 30 1018.3
20260830094646 82 165 6.0 11.0 0.00 0.00 0.00 30 1018.6
20260830094146 82 201 6.0 11.0 0.00 0.00 0.00 30 1018.4
20260830093646 82 207 7.0 14.0 0.00 0.00 0.00 30 1018.4
20260830093144 82 169 7.0 14.0 0.00 0.00 0.00 29 1018.3
20260830092643 82 186 6.0 11.0 0.00 0.00 0.00 29 1018.4
20260830092144 82 190 6.0 11.0 0.00 0.00 0.00 29 1018.4
20260830091643 82 171 5.0 11.0 0.00 0.00 0.00 29 1018.4
20260830091143 82 158 5.0 10.0 0.00 0.00 0.00 29 1018.4
20260830090644 82 194 4.0 8.0 0.00 0.00 0.00 28 1018.4
20260830090143 83 184 4.0 8.0 0.00 0.00 0.00 28 1018.4
20260830085643 83 183 3.0 6.0 0.00 0.00 0.00 28 1018.4
20260830085143 83 150 3.0 5.0 0.00 0.00 0.00 28 1018.4
20260830084644 83 171 3.0 6.0 0.00 0.00 0.00 27 1018.4
20260830084144 84 159 4.0 8.0 0.00 0.00 0.00 27 1018.4
20260830083904 84 165 4.0 9.0 0.00 0.00 0.00 27 1018.6
20260830083144 84 180 4.0 9.0 0.00 0.00 0.00 27 1018.7
20260830082643 84 167 3.0 6.0 0.00 0.00 0.00 27 1018.7
20260830082141 84 192 3.0 6.0 0.00 0.00 0.00 27 1018.6
20260830081642 84 194 3.0 6.0 0.00 0.00 0.00 27 1018.4
20260830081146 84 188 3.0 7.0 0.00 0.00 0.00 27 1018.7
20260830080641 84 215 2.0 7.0 0.00 0.00 0.00 27 1018.7
20260830080141 84 186 2.0 4.0 0.00 0.00 0.00 27 1018.6
20260830075639 84 178 2.0 4.0 0.00 0.00 0.00 26 1018.6
20260830075139 85 148 2.0 6.0 0.00 0.00 0.00 26 1018.6
20260830075132 85 212 2.0 6.0 0.00 0.00 0.00 26 1018.7
20260830074139 85 163 3.0 6.0 0.00 0.00 0.00 26 1018.8
20260830073640 85 146 4.0 7.0 0.00 0.00 0.00 26 1018.8
20260830073142 85 164 4.0 8.0 0.00 0.00 0.00 26 1019.0